Retour au catalogue

COSMOS 1867 COOLANT

ActifLEO
NORAD 43325·DEBRIS·🇷🇺 Russia

Lancé Jul 10, 1987 depuis Baikonur Cosmodrome

Loading…

Prochains Passages (prochaines 24 heures)

TLE

VieillissantSource: Space-Track

Époque: Sep 11, 2026, 21:18 UTC

1 43325U 87060AS  26254.88770537  .00000207  00000-0  10716-3 0  9999
2 43325  65.0086 115.2651 0019260 276.9769  82.9126 14.35271286611004

Suivez COSMOS 1867 COOLANT en temps réel avec AllMySat

Download on the App Store